| time (UTC) | temp F | wind direction | speed knots | gust knots | rain 1hr in | rain 24hr in | rain mn in | humidity % | barometer mb |
| 20260831210544 | 98 | 0 | 0.9 | 6.1 | 0.00 | 0.00 | 0.00 | 44 | 1014.5 |
| 20260831210100 | 98 | 0 | 0.9 | 6.1 | 0.00 | 0.00 | 0.00 | 44 | 1014.6 |
| 20260831205545 | 98 | 56 | 0.9 | 6.1 | 0.00 | 0.00 | 0.00 | 46 | 1014.7 |
| 20260831205045 | 98 | 64 | 0.0 | 3.5 | 0.00 | 0.00 | 0.00 | 46 | 1014.7 |
| 20260831204557 | 97 | 0 | 0.0 | 1.7 | 0.00 | 0.00 | 0.00 | 46 | 1014.8 |
| 20260831204045 | 97 | 0 | 0.0 | 6.1 | 0.00 | 0.00 | 0.00 | 48 | 1015.0 |
| 20260831203544 | 97 | 74 | 0.9 | 6.1 | 0.00 | 0.00 | 0.00 | 47 | 1015.1 |
| 20260831203057 | 97 | 51 | 0.9 | 5.2 | 0.00 | 0.00 | 0.00 | 47 | 1015.2 |
| 20260831202544 | 97 | 0 | 0.0 | 6.1 | 0.00 | 0.00 | 0.00 | 48 | 1015.3 |
| 20260831202046 | 97 | 55 | 0.9 | 6.1 | 0.00 | 0.00 | 0.00 | 50 | 1015.4 |
| 20260831201601 | 97 | 78 | 0.0 | 1.7 | 0.00 | 0.00 | 0.00 | 48 | 1015.4 |
| 20260831201045 | 97 | 78 | 0.0 | 3.5 | 0.00 | 0.00 | 0.00 | 48 | 1015.6 |
| 20260831200545 | 96 | 0 | 0.0 | 3.5 | 0.00 | 0.00 | 0.00 | 49 | 1015.7 |
| 20260831200058 | 96 | 73 | 0.0 | 1.7 | 0.00 | 0.00 | 0.00 | 49 | 1015.6 |
| 20260831195548 | 96 | 74 | 0.0 | 5.2 | 0.00 | 0.00 | 0.00 | 48 | 1015.7 |
| 20260831195045 | 96 | 73 | 0.9 | 6.1 | 0.00 | 0.00 | 0.00 | 50 | 1015.9 |
| 20260831194641 | 96 | 53 | 1.7 | 6.1 | 0.00 | 0.00 | 0.00 | 49 | 1016.0 |
| 20260831194045 | 96 | 56 | 0.9 | 3.5 | 0.00 | 0.00 | 0.00 | 49 | 1016.0 |
| 20260831193545 | 96 | 0 | 0.0 | 2.6 | 0.00 | 0.00 | 0.00 | 50 | 1016.0 |
| 20260831193059 | 96 | 0 | 0.0 | 2.6 | 0.00 | 0.00 | 0.00 | 51 | 1016.1 |
| 20260831192545 | 96 | 67 | 0.9 | 6.1 | 0.00 | 0.00 | 0.00 | 52 | 1016.2 |
| 20260831192045 | 96 | 0 | 0.0 | 6.1 | 0.00 | 0.00 | 0.00 | 49 | 1016.2 |
| 20260831191556 | 96 | 64 | 0.9 | 6.1 | 0.00 | 0.00 | 0.00 | 51 | 1016.4 |
| 20260831191044 | 96 | 66 | 0.0 | 3.5 | 0.00 | 0.00 | 0.00 | 53 | 1016.4 |
| 20260831190548 | 95 | 66 | 0.9 | 3.5 | 0.00 | 0.00 | 0.00 | 52 | 1016.4 |
| 20260831185545 | 95 | 0 | 0.9 | 5.2 | 0.00 | 0.00 | 0.00 | 53 | 1016.6 |
| 20260831185044 | 95 | 56 | 0.9 | 7.0 | 0.00 | 0.00 | 0.00 | 53 | 1016.7 |
| 20260831184557 | 95 | 0 | 1.7 | 7.0 | 0.00 | 0.00 | 0.00 | 54 | 1016.8 |
| 20260831184045 | 95 | 55 | 1.7 | 7.0 | 0.00 | 0.00 | 0.00 | 54 | 1016.9 |
| 20260831183548 | 95 | 62 | 0.0 | 3.5 | 0.00 | 0.00 | 0.00 | 57 | 1016.9 |
| 20260831183058 | 94 | 0 | 0.0 | 5.2 | 0.00 | 0.00 | 0.00 | 55 | 1016.9 |
| 20260831182546 | 94 | 62 | 0.9 | 6.1 | 0.00 | 0.00 | 0.00 | 56 | 1016.9 |
| 20260831182047 | 94 | 64 | 0.9 | 6.1 | 0.00 | 0.00 | 0.00 | 54 | 1016.9 |
| 20260831181556 | 94 | 73 | 0.0 | 2.6 | 0.00 | 0.00 | 0.00 | 57 | 1016.9 |
| 20260831181050 | 94 | 63 | 0.0 | 2.6 | 0.00 | 0.00 | 0.00 | 57 | 1017.0 |
| 20260831180546 | 94 | 61 | 0.0 | 3.5 | 0.00 | 0.00 | 0.00 | 57 | 1017.1 |
| 20260831180056 | 93 | 70 | 0.0 | 3.5 | 0.00 | 0.00 | 0.00 | 60 | 1017.3 |
| 20260831175547 | 93 | 187 | 0.9 | 3.5 | 0.00 | 0.00 | 0.00 | 60 | 1017.3 |
| 20260831175048 | 93 | 62 | 0.0 | 3.5 | 0.00 | 0.00 | 0.00 | 59 | 1017.4 |
| 20260831174601 | 92 | 62 | 0.9 | 6.1 | 0.00 | 0.00 | 0.00 | 62 | 1017.5 |
| 20260831174050 | 92 | 0 | 0.9 | 6.1 | 0.00 | 0.00 | 0.00 | 60 | 1017.5 |
| 20260831173546 | 92 | 66 | 0.0 | 6.1 | 0.00 | 0.00 | 0.00 | 63 | 1017.5 |
| 20260831173057 | 92 | 56 | 1.7 | 6.1 | 0.00 | 0.00 | 0.00 | 61 | 1017.7 |
| 20260831172546 | 92 | 61 | 0.9 | 3.5 | 0.00 | 0.00 | 0.00 | 63 | 1017.7 |
| 20260831172046 | 91 | 61 | 0.0 | 6.1 | 0.00 | 0.00 | 0.00 | 65 | 1017.8 |
| 20260831171559 | 91 | 62 | 0.0 | 6.1 | 0.00 | 0.00 | 0.00 | 63 | 1017.8 |
| 20260831171047 | 91 | 61 | 0.9 | 6.1 | 0.00 | 0.00 | 0.00 | 64 | 1017.8 |
| 20260831170546 | 91 | 66 | 0.0 | 2.6 | 0.00 | 0.00 | 0.00 | 63 | 1017.7 |
| 20260831170052 | 91 | 0 | 0.0 | 2.6 | 0.00 | 0.00 | 0.00 | 66 | 1017.8 |
| 20260831165549 | 90 | 0 | 0.0 | 5.2 | 0.00 | 0.00 | 0.00 | 67 | 1017.9 |
| 20260831165046 | 90 | 66 | 0.0 | 5.2 | 0.00 | 0.00 | 0.00 | 67 | 1018.0 |
| 20260831164600 | 90 | 0 | 0.9 | 5.2 | 0.00 | 0.00 | 0.00 | 67 | 1017.9 |
| 20260831164046 | 89 | 58 | 0.9 | 5.2 | 0.00 | 0.00 | 0.00 | 69 | 1017.9 |
| 20260831163546 | 88 | 58 | 0.0 | 2.6 | 0.00 | 0.00 | 0.00 | 71 | 1017.9 |
| 20260831163057 | 88 | 0 | 0.9 | 5.2 | 0.00 | 0.00 | 0.00 | 71 | 1018.0 |
| 20260831162547 | 87 | 0 | 0.0 | 5.2 | 0.00 | 0.00 | 0.00 | 71 | 1017.9 |
| 20260831162050 | 87 | 0 | 0.9 | 5.2 | 0.00 | 0.00 | 0.00 | 72 | 1018.0 |
| 20260831161605 | 87 | 66 | 0.0 | 2.6 | 0.00 | 0.00 | 0.00 | 73 | 1018.0 |
| 20260831161047 | 87 | 0 | 0.0 | 3.5 | 0.00 | 0.00 | 0.00 | 73 | 1017.9 |
| 20260831160546 | 87 | 0 | 0.0 | 3.5 | 0.00 | 0.00 | 0.00 | 72 | 1018.0 |
| 20260831160051 | 87 | 67 | 0.9 | 3.5 | 0.00 | 0.00 | 0.00 | 72 | 1017.9 |
| 20260831155547 | 87 | 67 | 0.0 | 3.5 | 0.00 | 0.00 | 0.00 | 74 | 1017.9 |
| 20260831155047 | 86 | 68 | 0.0 | 2.6 | 0.00 | 0.00 | 0.00 | 75 | 1017.8 |
| 20260831154629 | 86 | 0 | 0.9 | 2.6 | 0.00 | 0.00 | 0.00 | 75 | 1017.8 |
| 20260831154047 | 85 | 68 | 0.9 | 2.6 | 0.00 | 0.00 | 0.00 | 76 | 1017.9 |
| 20260831153546 | 85 | 58 | 0.0 | 5.2 | 0.00 | 0.00 | 0.00 | 77 | 1017.9 |
| 20260831153116 | 84 | 58 | 0.9 | 5.2 | 0.00 | 0.00 | 0.00 | 78 | 1017.8 |
| 20260831152547 | 84 | 0 | 0.0 | 3.5 | 0.00 | 0.00 | 0.00 | 78 | 1017.8 |
| 20260831152046 | 84 | 55 | 0.9 | 5.2 | 0.00 | 0.00 | 0.00 | 78 | 1017.8 |
| 20260831151601 | 84 | 0 | 0.9 | 5.2 | 0.00 | 0.00 | 0.00 | 79 | 1017.8 |
| 20260831151046 | 84 | 53 | 1.7 | 7.8 | 0.00 | 0.00 | 0.00 | 77 | 1017.7 |
| 20260831150547 | 84 | 62 | 1.7 | 7.8 | 0.00 | 0.00 | 0.00 | 78 | 1017.7 |
| 20260831145549 | 84 | 0 | 0.9 | 3.5 | 0.00 | 0.00 | 0.00 | 81 | 1017.8 |
| 20260831145046 | 83 | 60 | 0.0 | 3.5 | 0.00 | 0.00 | 0.00 | 82 | 1017.6 |
| 20260831144644 | 83 | 60 | 0.0 | 3.5 | 0.00 | 0.00 | 0.00 | 83 | 1017.6 |
| 20260831144046 | 83 | 60 | 0.9 | 3.5 | 0.00 | 0.00 | 0.00 | 84 | 1017.5 |
| 20260831143550 | 82 | 0 | 0.0 | 3.5 | 0.00 | 0.00 | 0.00 | 85 | 1017.6 |
| 20260831143100 | 82 | 57 | 0.0 | 3.5 | 0.00 | 0.00 | 0.00 | 86 | 1017.5 |
| 20260831142549 | 82 | 0 | 0.9 | 3.5 | 0.00 | 0.00 | 0.00 | 87 | 1017.4 |
| 20260831142046 | 81 | 0 | 0.0 | 2.6 | 0.00 | 0.00 | 0.00 | 87 | 1017.5 |
| 20260831141557 | 81 | 0 | 0.0 | 5.2 | 0.00 | 0.00 | 0.00 | 87 | 1017.5 |
| 20260831141043 | 81 | 0 | 0.0 | 5.2 | 0.00 | 0.00 | 0.00 | 88 | 1017.4 |
| 20260831140546 | 81 | 0 | 0.0 | 2.6 | 0.00 | 0.00 | 0.00 | 89 | 1017.4 |
| 20260831140052 | 80 | 0 | 0.9 | 2.6 | 0.00 | 0.00 | 0.00 | 89 | 1017.3 |
| 20260831135547 | 80 | 0 | 0.0 | 2.6 | 0.00 | 0.00 | 0.00 | 91 | 1017.2 |
| 20260831135047 | 80 | 0 | 0.0 | 2.6 | 0.00 | 0.00 | 0.00 | 90 | 1017.3 |
| 20260831134601 | 80 | 0 | 0.0 | 0.9 | 0.00 | 0.00 | 0.00 | 91 | 1017.3 |
| 20260831134047 | 79 | 0 | 0.0 | 0.9 | 0.00 | 0.00 | 0.00 | 92 | 1017.2 |
| 20260831133546 | 79 | 0 | 0.0 | 1.7 | 0.00 | 0.00 | 0.00 | 92 | 1017.2 |
| 20260831133103 | 79 | 0 | 0.0 | 2.6 | 0.00 | 0.00 | 0.00 | 92 | 1017.1 |
| 20260831132546 | 79 | 0 | 0.0 | 2.6 | 0.00 | 0.00 | 0.00 | 92 | 1017.1 |
| 20260831132046 | 79 | 0 | 0.0 | 2.6 | 0.00 | 0.00 | 0.00 | 92 | 1017.1 |
| 20260831131604 | 78 | 58 | 0.0 | 2.6 | 0.00 | 0.00 | 0.00 | 92 | 1016.9 |
| 20260831131046 | 78 | 0 | 0.0 | 2.6 | 0.00 | 0.00 | 0.00 | 92 | 1017.0 |
| 20260831130545 | 78 | 58 | 0.0 | 1.7 | 0.00 | 0.00 | 0.00 | 93 | 1016.9 |
| 20260831130109 | 78 | 0 | 0.0 | 0.0 | 0.00 | 0.00 | 0.00 | 92 | 1016.8 |
| 20260831125546 | 78 | 0 | 0.0 | 0.0 | 0.00 | 0.00 | 0.00 | 91 | 1016.8 |
| 20260831125046 | 78 | 0 | 0.0 | 0.0 | 0.00 | 0.00 | 0.00 | 92 | 1016.6 |
| 20260831124603 | 78 | 0 | 0.0 | 0.0 | 0.00 | 0.00 | 0.00 | 92 | 1016.6 |
| 20260831124046 | 78 | 0 | 0.0 | 0.0 | 0.00 | 0.00 | 0.00 | 92 | 1016.6 |
| 20260831123546 | 78 | 0 | 0.0 | 0.0 | 0.00 | 0.00 | 0.00 | 92 | 1016.6 |
| 20260831123100 | 78 | 0 | 0.0 | 0.0 | 0.00 | 0.00 | 0.00 | 92 | 1016.5 |
| 20260831122546 | 78 | 0 | 0.0 | 0.0 | 0.00 | 0.00 | 0.00 | 91 | 1016.4 |
| 20260831122046 | 78 | 0 | 0.0 | 0.0 | 0.00 | 0.00 | 0.00 | 91 | 1016.6 |
| 20260831121558 | 78 | 0 | 0.0 | 0.0 | 0.00 | 0.00 | 0.00 | 91 | 1016.6 |
| 20260831121044 | 79 | 0 | 0.0 | 0.0 | 0.00 | 0.00 | 0.00 | 91 | 1016.5 |
| 20260831120547 | 79 | 0 | 0.0 | 0.0 | 0.00 | 0.00 | 0.00 | 91 | 1016.5 |
| 20260831120049 | 79 | 0 | 0.0 | 0.0 | 0.00 | 0.00 | 0.00 | 91 | 1016.4 |
| 20260831115545 | 79 | 0 | 0.0 | 0.0 | 0.00 | 0.00 | 0.00 | 91 | 1016.4 |
| 20260831115046 | 79 | 0 | 0.0 | 0.0 | 0.00 | 0.00 | 0.00 | 91 | 1016.3 |
| 20260831114601 | 79 | 0 | 0.0 | 1.7 | 0.00 | 0.00 | 0.00 | 91 | 1016.4 |
| 20260831114046 | 79 | 0 | 0.0 | 1.7 | 0.00 | 0.00 | 0.00 | 91 | 1016.5 |
| 20260831113547 | 79 | 0 | 0.0 | 1.7 | 0.00 | 0.00 | 0.00 | 91 | 1016.5 |
| 20260831113105 | 79 | 0 | 0.0 | 1.7 | 0.00 | 0.00 | 0.00 | 90 | 1016.5 |
| 20260831112547 | 79 | 0 | 0.0 | 1.7 | 0.00 | 0.00 | 0.00 | 90 | 1016.6 |
| 20260831112046 | 79 | 0 | 0.0 | 0.9 | 0.00 | 0.00 | 0.00 | 90 | 1016.5 |
| 20260831111557 | 79 | 0 | 0.0 | 0.9 | 0.00 | 0.00 | 0.00 | 90 | 1016.4 |
| 20260831111046 | 79 | 0 | 0.0 | 1.7 | 0.00 | 0.00 | 0.00 | 90 | 1016.3 |
| 20260831110546 | 79 | 0 | 0.0 | 1.7 | 0.00 | 0.00 | 0.00 | 90 | 1016.4 |
| 20260831110059 | 79 | 0 | 0.0 | 1.7 | 0.00 | 0.00 | 0.00 | 90 | 1016.4 |
| 20260831105546 | 79 | 0 | 0.0 | 0.9 | 0.00 | 0.00 | 0.00 | 90 | 1016.4 |
| 20260831105046 | 79 | 58 | 0.0 | 0.0 | 0.00 | 0.00 | 0.00 | 90 | 1016.3 |
| 20260831104603 | 79 | 0 | 0.0 | 0.0 | 0.00 | 0.00 | 0.00 | 90 | 1016.3 |
| 20260831104047 | 79 | 0 | 0.0 | 0.0 | 0.00 | 0.00 | 0.00 | 90 | 1016.3 |
| 20260831103546 | 79 | 0 | 0.0 | 0.9 | 0.00 | 0.00 | 0.00 | 90 | 1016.3 |
| 20260831103056 | 79 | 0 | 0.0 | 0.9 | 0.00 | 0.00 | 0.00 | 90 | 1016.3 |
| 20260831102546 | 79 | 0 | 0.0 | 0.9 | 0.00 | 0.00 | 0.00 | 90 | 1016.3 |
| 20260831102046 | 79 | 0 | 0.0 | 0.9 | 0.00 | 0.00 | 0.00 | 89 | 1016.3 |
| 20260831101556 | 79 | 0 | 0.0 | 2.6 | 0.00 | 0.00 | 0.00 | 89 | 1016.3 |
| 20260831101046 | 79 | 0 | 0.0 | 2.6 | 0.00 | 0.00 | 0.00 | 89 | 1016.3 |
| 20260831100547 | 80 | 59 | 0.0 | 0.9 | 0.00 | 0.00 | 0.00 | 89 | 1016.4 |
| 20260831100119 | 80 | 0 | 0.0 | 2.6 | 0.00 | 0.00 | 0.00 | 89 | 1016.3 |
| 20260831095546 | 80 | 0 | 0.0 | 2.6 | 0.00 | 0.00 | 0.00 | 89 | 1016.3 |
| 20260831095047 | 80 | 0 | 0.0 | 2.6 | 0.00 | 0.00 | 0.00 | 89 | 1016.4 |
| 20260831094558 | 80 | 0 | 0.0 | 2.6 | 0.00 | 0.00 | 0.00 | 88 | 1016.4 |
| 20260831094047 | 80 | 0 | 0.0 | 2.6 | 0.00 | 0.00 | 0.00 | 88 | 1016.3 |
| 20260831093547 | 80 | 0 | 0.0 | 2.6 | 0.00 | 0.00 | 0.00 | 88 | 1016.4 |
| 20260831093058 | 80 | 0 | 0.0 | 3.5 | 0.00 | 0.00 | 0.00 | 88 | 1016.3 |
| 20260831092549 | 80 | 0 | 0.0 | 3.5 | 0.00 | 0.00 | 0.00 | 88 | 1016.3 |
| 20260831092046 | 80 | 64 | 0.0 | 5.2 | 0.00 | 0.00 | 0.00 | 88 | 1016.1 |
| 20260831091605 | 80 | 0 | 0.0 | 5.2 | 0.00 | 0.00 | 0.00 | 88 | 1016.1 |
| 20260831091046 | 80 | 62 | 0.0 | 1.7 | 0.00 | 0.00 | 0.00 | 88 | 1016.1 |
| 20260831090546 | 80 | 0 | 0.0 | 2.6 | 0.00 | 0.00 | 0.00 | 88 | 1016.1 |
| 20260831090059 | 80 | 0 | 0.0 | 5.2 | 0.00 | 0.00 | 0.00 | 88 | 1016.2 |
| 20260831085546 | 80 | 0 | 0.0 | 5.2 | 0.00 | 0.00 | 0.00 | 87 | 1016.1 |
| 20260831085047 | 80 | 62 | 0.0 | 2.6 | 0.00 | 0.00 | 0.00 | 87 | 1016.1 |
| 20260831084636 | 80 | 0 | 0.0 | 0.9 | 0.00 | 0.00 | 0.00 | 87 | 1016.2 |
| 20260831084046 | 80 | 0 | 0.0 | 2.6 | 0.00 | 0.00 | 0.00 | 87 | 1016.1 |
| 20260831083546 | 80 | 0 | 0.9 | 6.1 | 0.00 | 0.00 | 0.00 | 87 | 1016.2 |
| 20260831083058 | 80 | 57 | 0.0 | 6.1 | 0.00 | 0.00 | 0.00 | 87 | 1016.3 |
| 20260831082546 | 80 | 60 | 0.9 | 6.1 | 0.00 | 0.00 | 0.00 | 86 | 1016.3 |
| 20260831082046 | 81 | 0 | 0.0 | 5.2 | 0.00 | 0.00 | 0.00 | 86 | 1016.4 |
| 20260831081604 | 80 | 0 | 0.9 | 7.0 | 0.00 | 0.00 | 0.00 | 86 | 1016.4 |
| 20260831081046 | 80 | 0 | 0.0 | 7.0 | 0.00 | 0.00 | 0.00 | 86 | 1016.3 |
| 20260831080549 | 81 | 51 | 0.0 | 2.6 | 0.00 | 0.00 | 0.00 | 85 | 1016.4 |
| 20260831080120 | 81 | 64 | 0.9 | 3.5 | 0.00 | 0.00 | 0.00 | 85 | 1016.4 |
| 20260831075545 | 81 | 60 | 0.0 | 3.5 | 0.00 | 0.00 | 0.00 | 86 | 1016.4 |
| 20260831075046 | 81 | 70 | 0.0 | 3.5 | 0.00 | 0.00 | 0.00 | 85 | 1016.4 |
| 20260831074606 | 81 | 0 | 0.9 | 5.2 | 0.00 | 0.00 | 0.00 | 84 | 1016.4 |
| 20260831074046 | 81 | 75 | 0.0 | 5.2 | 0.00 | 0.00 | 0.00 | 84 | 1016.5 |
| 20260831073546 | 81 | 70 | 0.0 | 5.2 | 0.00 | 0.00 | 0.00 | 83 | 1016.4 |
| 20260831073055 | 81 | 0 | 0.9 | 6.1 | 0.00 | 0.00 | 0.00 | 83 | 1016.3 |
| 20260831072548 | 82 | 70 | 0.0 | 6.1 | 0.00 | 0.00 | 0.00 | 82 | 1016.3 |
| 20260831072045 | 82 | 0 | 0.9 | 5.2 | 0.00 | 0.00 | 0.00 | 82 | 1016.3 |
| 20260831071611 | 82 | 0 | 0.9 | 5.2 | 0.00 | 0.00 | 0.00 | 82 | 1016.3 |
| 20260831071046 | 82 | 66 | 0.0 | 6.1 | 0.00 | 0.00 | 0.00 | 81 | 1016.3 |
| 20260831070547 | 82 | 75 | 0.9 | 6.1 | 0.00 | 0.00 | 0.00 | 81 | 1016.4 |
| 20260831070100 | 82 | 62 | 1.7 | 7.0 | 0.00 | 0.00 | 0.00 | 80 | 1016.5 |
| 20260831065545 | 82 | 100 | 0.9 | 7.0 | 0.00 | 0.00 | 0.00 | 79 | 1016.5 |
| 20260831065046 | 82 | 74 | 0.9 | 7.8 | 0.00 | 0.00 | 0.00 | 78 | 1016.6 |
| 20260831064553 | 83 | 60 | 1.7 | 7.8 | 0.00 | 0.00 | 0.00 | 78 | 1016.4 |
| 20260831064045 | 83 | 66 | 0.0 | 3.5 | 0.00 | 0.00 | 0.00 | 77 | 1016.4 |
| 20260831063545 | 83 | 0 | 0.9 | 7.0 | 0.00 | 0.00 | 0.00 | 77 | 1016.5 |
| 20260831063112 | 83 | 67 | 0.0 | 7.8 | 0.00 | 0.00 | 0.00 | 77 | 1016.5 |
| 20260831062549 | 83 | 54 | 0.9 | 7.8 | 0.00 | 0.00 | 0.00 | 76 | 1016.5 |
| 20260831062047 | 83 | 68 | 0.9 | 5.2 | 0.00 | 0.00 | 0.00 | 76 | 1016.4 |
| 20260831061558 | 84 | 0 | 0.9 | 3.5 | 0.00 | 0.00 | 0.00 | 76 | 1016.3 |
| 20260831061047 | 84 | 68 | 0.9 | 5.2 | 0.00 | 0.00 | 0.00 | 75 | 1016.4 |
| 20260831060546 | 84 | 0 | 0.9 | 5.2 | 0.00 | 0.00 | 0.00 | 75 | 1016.4 |
| 20260831060104 | 84 | 58 | 0.9 | 7.0 | 0.00 | 0.00 | 0.00 | 75 | 1016.4 |
| 20260831055546 | 84 | 61 | 0.9 | 7.8 | 0.00 | 0.00 | 0.00 | 75 | 1016.3 |
| 20260831055046 | 84 | 63 | 2.6 | 7.8 | 0.00 | 0.00 | 0.00 | 74 | 1016.2 |
| 20260831054605 | 85 | 62 | 0.9 | 5.2 | 0.00 | 0.00 | 0.00 | 74 | 1016.1 |
| 20260831054046 | 85 | 0 | 0.9 | 5.2 | 0.00 | 0.00 | 0.00 | 74 | 1016.0 |
| 20260831053546 | 85 | 60 | 0.0 | 5.2 | 0.00 | 0.00 | 0.00 | 73 | 1015.9 |
| 20260831053117 | 85 | 53 | 0.9 | 5.2 | 0.00 | 0.00 | 0.00 | 73 | 1016.0 |
| 20260831052547 | 85 | 0 | 0.0 | 6.1 | 0.00 | 0.00 | 0.00 | 72 | 1016.0 |
| 20260831052045 | 85 | 61 | 1.7 | 8.7 | 0.00 | 0.00 | 0.00 | 72 | 1015.9 |
| 20260831051559 | 85 | 67 | 0.0 | 8.7 | 0.00 | 0.00 | 0.00 | 71 | 1015.8 |
| 20260831051045 | 86 | 62 | 0.9 | 7.0 | 0.00 | 0.00 | 0.00 | 71 | 1015.8 |
| 20260831050546 | 86 | 66 | 0.9 | 7.0 | 0.00 | 0.00 | 0.00 | 70 | 1015.9 |
| 20260831050115 | 86 | 57 | 1.7 | 6.1 | 0.00 | 0.00 | 0.00 | 69 | 1015.8 |
| 20260831045546 | 86 | 0 | 0.9 | 5.2 | 0.00 | 0.00 | 0.00 | 69 | 1015.9 |
| 20260831045046 | 86 | 0 | 0.0 | 5.2 | 0.00 | 0.00 | 0.00 | 68 | 1015.7 |
| 20260831044602 | 87 | 56 | 0.9 | 5.2 | 0.00 | 0.00 | 0.00 | 68 | 1015.8 |
| 20260831044046 | 87 | 61 | 0.0 | 5.2 | 0.00 | 0.00 | 0.00 | 67 | 1015.8 |
| 20260831043546 | 87 | 0 | 0.9 | 5.2 | 0.00 | 0.00 | 0.00 | 67 | 1015.8 |
| 20260831043059 | 87 | 0 | 0.0 | 7.0 | 0.00 | 0.00 | 0.00 | 66 | 1015.7 |
| 20260831042546 | 87 | 70 | 0.9 | 7.0 | 0.00 | 0.00 | 0.00 | 66 | 1015.7 |
| 20260831042046 | 87 | 70 | 0.9 | 6.1 | 0.00 | 0.00 | 0.00 | 65 | 1015.8 |
| 20260831041617 | 87 | 56 | 0.9 | 6.1 | 0.00 | 0.00 | 0.00 | 65 | 1015.7 |
| 20260831041046 | 88 | 0 | 0.0 | 6.1 | 0.00 | 0.00 | 0.00 | 64 | 1015.9 |
| 20260831040546 | 88 | 62 | 0.9 | 5.2 | 0.00 | 0.00 | 0.00 | 64 | 1015.8 |
| 20260831040057 | 88 | 0 | 0.0 | 5.2 | 0.00 | 0.00 | 0.00 | 64 | 1015.8 |
| 20260831035545 | 88 | 64 | 0.0 | 7.8 | 0.00 | 0.00 | 0.00 | 63 | 1015.7 |
| 20260831035045 | 88 | 0 | 0.9 | 7.8 | 0.00 | 0.00 | 0.00 | 63 | 1015.7 |
| 20260831034600 | 88 | 50 | 0.0 | 8.7 | 0.00 | 0.00 | 0.00 | 63 | 1015.6 |
| 20260831034045 | 88 | 0 | 0.0 | 8.7 | 0.00 | 0.00 | 0.00 | 62 | 1015.5 |
| 20260831033545 | 89 | 0 | 0.0 | 7.0 | 0.00 | 0.00 | 0.00 | 62 | 1015.5 |
| 20260831033112 | 89 | 0 | 0.9 | 7.0 | 0.00 | 0.00 | 0.00 | 62 | 1015.4 |
| 20260831032545 | 89 | 0 | 0.9 | 6.1 | 0.00 | 0.00 | 0.00 | 62 | 1015.4 |
| 20260831032048 | 89 | 60 | 0.9 | 6.1 | 0.00 | 0.00 | 0.00 | 61 | 1015.3 |
| 20260831031556 | 89 | 58 | 1.7 | 6.1 | 0.00 | 0.00 | 0.00 | 61 | 1015.2 |
| 20260831031047 | 89 | 0 | 0.0 | 3.5 | 0.00 | 0.00 | 0.00 | 61 | 1015.2 |
| 20260831030548 | 89 | 0 | 0.9 | 2.6 | 0.00 | 0.00 | 0.00 | 61 | 1015.0 |
| 20260831030107 | 89 | 0 | 0.0 | 2.6 | 0.00 | 0.00 | 0.00 | 61 | 1014.9 |
| 20260831025548 | 89 | 0 | 0.0 | 7.0 | 0.00 | 0.00 | 0.00 | 61 | 1014.9 |
| 20260831025049 | 90 | 0 | 0.9 | 7.0 | 0.00 | 0.00 | 0.00 | 61 | 1014.9 |
| 20260831024604 | 90 | 73 | 0.0 | 2.6 | 0.00 | 0.00 | 0.00 | 61 | 1014.7 |
| 20260831024049 | 90 | 73 | 0.0 | 5.2 | 0.00 | 0.00 | 0.00 | 61 | 1014.6 |
| 20260831023548 | 90 | 0 | 0.0 | 5.2 | 0.00 | 0.00 | 0.00 | 61 | 1014.6 |
| 20260831023104 | 90 | 68 | 0.9 | 5.2 | 0.00 | 0.00 | 0.00 | 60 | 1014.5 |
| 20260831022547 | 90 | 76 | 0.0 | 2.6 | 0.00 | 0.00 | 0.00 | 60 | 1014.3 |
| 20260831022047 | 91 | 103 | 0.0 | 2.6 | 0.00 | 0.00 | 0.00 | 60 | 1014.4 |
| 20260831021605 | 91 | 55 | 0.0 | 7.0 | 0.00 | 0.00 | 0.00 | 59 | 1014.2 |
| 20260831021048 | 91 | 52 | 1.7 | 7.0 | 0.00 | 0.00 | 0.00 | 59 | 1014.1 |
| 20260831020549 | 91 | 0 | 0.0 | 6.1 | 0.00 | 0.00 | 0.00 | 58 | 1014.1 |
| 20260831015547 | 91 | 0 | 0.0 | 5.2 | 0.00 | 0.00 | 0.00 | 57 | 1014.0 |
| 20260831015047 | 92 | 0 | 1.7 | 7.0 | 0.00 | 0.00 | 0.00 | 56 | 1013.9 |
| 20260831014603 | 92 | 80 | 0.9 | 7.0 | 0.00 | 0.00 | 0.00 | 54 | 1013.8 |
| 20260831014048 | 92 | 74 | 0.9 | 3.5 | 0.00 | 0.00 | 0.00 | 52 | 1013.7 |
| 20260831013547 | 92 | 66 | 0.0 | 1.7 | 0.00 | 0.00 | 0.00 | 51 | 1013.5 |
| 20260831013058 | 92 | 0 | 0.0 | 0.0 | 0.00 | 0.00 | 0.00 | 52 | 1013.4 |
| 20260831012547 | 92 | 0 | 0.0 | 0.0 | 0.00 | 0.00 | 0.00 | 51 | 1013.4 |
| 20260831012047 | 92 | 0 | 0.0 | 1.7 | 0.00 | 0.00 | 0.00 | 50 | 1013.3 |
| 20260831011549 | 93 | 0 | 0.0 | 1.7 | 0.00 | 0.00 | 0.00 | 50 | 1013.4 |
| 20260831011047 | 93 | 0 | 0.0 | 1.7 | 0.00 | 0.00 | 0.00 | 49 | 1013.3 |
| 20260831010547 | 93 | 0 | 0.0 | 1.7 | 0.00 | 0.00 | 0.00 | 50 | 1013.3 |
| 20260831010110 | 93 | 0 | 0.0 | 1.7 | 0.00 | 0.00 | 0.00 | 49 | 1013.3 |
| 20260831005547 | 93 | 0 | 0.0 | 1.7 | 0.00 | 0.00 | 0.00 | 48 | 1013.3 |
| 20260831005047 | 93 | 0 | 0.0 | 0.9 | 0.00 | 0.00 | 0.00 | 49 | 1013.2 |
| 20260831004603 | 93 | 0 | 0.0 | 0.9 | 0.00 | 0.00 | 0.00 | 48 | 1013.2 |
| 20260831004048 | 93 | 0 | 0.0 | 0.9 | 0.00 | 0.00 | 0.00 | 48 | 1013.1 |
| 20260831003548 | 94 | 0 | 0.0 | 0.9 | 0.00 | 0.00 | 0.00 | 48 | 1013.1 |
| 20260831003104 | 94 | 0 | 0.0 | 0.9 | 0.00 | 0.00 | 0.00 | 48 | 1013.2 |
| 20260831002547 | 94 | 0 | 0.0 | 1.7 | 0.00 | 0.00 | 0.00 | 49 | 1013.1 |
| 20260831002047 | 94 | 0 | 0.0 | 1.7 | 0.00 | 0.00 | 0.00 | 48 | 1013.1 |
| 20260831001559 | 94 | 0 | 0.0 | 1.7 | 0.00 | 0.00 | 0.00 | 48 | 1013.1 |
| 20260831001047 | 94 | 0 | 0.0 | 2.6 | 0.00 | 0.00 | 0.00 | 48 | 1013.1 |
| 20260831000546 | 94 | 0 | 0.0 | 2.6 | 0.00 | 0.00 | 0.00 | 48 | 1013.0 |
| 20260831000054 | 95 | 66 | 0.0 | 2.6 | 0.00 | 0.00 | 0.00 | 48 | 1013.1 |
| 20260830235545 | 95 | 0 | 0.0 | 3.5 | 0.00 | 0.00 | 0.00 | 47 | 1013.1 |
| 20260830235047 | 95 | 68 | 0.0 | 4.3 | 0.00 | 0.00 | 0.00 | 46 | 1013.1 |
| 20260830234607 | 95 | 105 | 0.9 | 4.3 | 0.00 | 0.00 | 0.00 | 46 | 1013.1 |
| 20260830234045 | 96 | 130 | 0.0 | 2.6 | 0.00 | 0.00 | 0.00 | 46 | 1013.2 |
| 20260830233545 | 96 | 0 | 0.0 | 5.2 | 0.00 | 0.00 | 0.00 | 47 | 1013.1 |
| 20260830233057 | 96 | 161 | 0.9 | 5.2 | 0.00 | 0.00 | 0.00 | 47 | 1013.2 |
| 20260830232545 | 96 | 0 | 0.0 | 2.6 | 0.00 | 0.00 | 0.00 | 46 | 1013.1 |
| 20260830232045 | 96 | 0 | 0.0 | 2.6 | 0.00 | 0.00 | 0.00 | 46 | 1013.1 |
| 20260830231604 | 96 | 0 | 0.0 | 2.6 | 0.00 | 0.00 | 0.00 | 45 | 1013.1 |
| 20260830231045 | 96 | 54 | 0.0 | 3.5 | 0.00 | 0.00 | 0.00 | 44 | 1013.1 |
| 20260830230546 | 96 | 0 | 0.0 | 6.1 | 0.00 | 0.00 | 0.00 | 45 | 1013.2 |
| 20260830230053 | 97 | 55 | 0.0 | 6.1 | 0.00 | 0.00 | 0.00 | 45 | 1013.1 |
| 20260830225546 | 97 | 54 | 0.9 | 6.1 | 0.00 | 0.00 | 0.00 | 44 | 1013.1 |
| 20260830225046 | 97 | 59 | 0.9 | 3.5 | 0.00 | 0.00 | 0.00 | 45 | 1013.2 |
| 20260830224608 | 97 | 64 | 0.0 | 3.5 | 0.00 | 0.00 | 0.00 | 44 | 1013.3 |
| 20260830224049 | 97 | 0 | 0.0 | 3.5 | 0.00 | 0.00 | 0.00 | 44 | 1013.3 |
| 20260830223546 | 97 | 0 | 0.0 | 3.5 | 0.00 | 0.00 | 0.00 | 46 | 1013.3 |
| 20260830223056 | 97 | 71 | 0.0 | 3.5 | 0.00 | 0.00 | 0.00 | 44 | 1013.3 |
| 20260830222549 | 97 | 68 | 0.9 | 3.5 | 0.00 | 0.00 | 0.00 | 45 | 1013.3 |
| 20260830222045 | 97 | 65 | 0.9 | 2.6 | 0.00 | 0.00 | 0.00 | 44 | 1013.3 |
| 20260830221606 | 97 | 0 | 0.0 | 2.6 | 0.00 | 0.00 | 0.00 | 45 | 1013.3 |
| 20260830221046 | 97 | 65 | 0.0 | 5.2 | 0.00 | 0.00 | 0.00 | 45 | 1013.4 |
| 20260830220546 | 97 | 64 | 0.0 | 5.2 | 0.00 | 0.00 | 0.00 | 44 | 1013.4 |
| 20260830220101 | 97 | 0 | 0.9 | 5.2 | 0.00 | 0.00 | 0.00 | 45 | 1013.4 |
| 20260830215545 | 97 | 74 | 0.9 | 5.2 | 0.00 | 0.00 | 0.00 | 45 | 1013.6 |
| 20260830215048 | 97 | 0 | 0.9 | 5.2 | 0.00 | 0.00 | 0.00 | 46 | 1013.5 |
| 20260830214556 | 97 | 66 | 0.9 | 5.2 | 0.00 | 0.00 | 0.00 | 44 | 1013.7 |
| 20260830214045 | 97 | 75 | 0.0 | 3.5 | 0.00 | 0.00 | 0.00 | 45 | 1013.7 |
| 20260830213546 | 97 | 0 | 0.9 | 3.5 | 0.00 | 0.00 | 0.00 | 48 | 1013.7 |
| 20260830213102 | 97 | 0 | 0.0 | 5.2 | 0.00 | 0.00 | 0.00 | 49 | 1013.8 |
| 20260830212545 | 97 | 0 | 0.9 | 6.1 | 0.00 | 0.00 | 0.00 | 47 | 1013.8 |
| 20260830212046 | 96 | 0 | 1.7 | 6.1 | 0.00 | 0.00 | 0.00 | 47 | 1013.9 |
| 20260830211601 | 96 | 0 | 0.0 | 2.6 | 0.00 | 0.00 | 0.00 | 48 | 1014.1 |
| 20260830211046 | 96 | 0 | 0.0 | 5.2 | 0.00 | 0.00 | 0.00 | 46 | 1014.1 |